User: anonymous   Login
Location: ??????
(38.0677°N, 22.9870°E)
Time: 13:04:43
(UTC+00:00)
Language:

ATLAS CENTAUR R/B - Orbit

View from above orbital plane
View from above orbital plane
View from above satellite
View from above satellite

Ground track
Ground track

The orbit data is extracted from the following two-line orbital elements,

1 38770U 12048N   25200.92945948  .00027005  00000-0  50746-3 0  9998
2 38770  64.6409 315.3742 0090660 267.3152  91.7605 15.44032920 67010
Epoch (UTC): 19 July 2025 22:18:25
Eccentricity: 0.0090660
inclination: 64.6409°
perigee height: 372 km
apogee height: 496 km
right ascension of ascending node: 315.3742°
argument of perigee: 267.3152°
revolutions per day: 15.44032920
mean anomaly at epoch: 91.7605°
orbit number at epoch: 6701

The dashed part of the orbit path shows where the satellite is in the earth's shadow,  

DLR